Weather History for Corpus Christi, TX

Change the Weather History Date:

Monday, August 19, 2013

  Actual Average Record
Temperature  
Mean Temperature 84 °F 85 °F  
Max Temperature 96 °F 95 °F 101 °F (2011)
Min Temperature 72 °F 75 °F 69 °F (1992)
Degree Days  
Heating Degree Days 0 0  
Month to date heating degree days 0 0  
Since 1 June heating degree days 0 0  
Since 1 July heating degree days 0 0  
Cooling Degree Days 19 20  
Month to date cooling degree days 433 380  
Year to date cooling degree days 2766 2330  
Since 1 June cooling degree days 1748 1489  
Growing Degree Days 34 (Base 50)    
Moisture  
Dew Point 68 °F    
Average Humidity 63    
Maximum Humidity 87    
Minimum Humidity 39    
Precipitation  
Precipitation 0.00 in 0.10 in 1.35 in (1961)
Month to date precipitation 0.33 1.39  
Year to date precipitation 10.13 17.81  
Snow  
Snow 0.00 in - - ()
Month to date snowfall 0.0  
Since 1 June snowfall 0.0  
Since 1 July snowfall 0.0  
Snow Depth 0.00 in    
Sea Level Pressure  
Sea Level Pressure 29.96 in    
Wind  
Wind Speed 9 mph (East)    
Max Wind Speed 20 mph    
Max Gust Speed 24 mph    
Visibility 10 miles    
Events      
T = Trace of Precipitation, MM = Missing Value Source: NWS Daily Summary

Daily Weather History Graph

Daily Weather History Graph

Search for Another Location

Airport:

Trip Planner

Search our weather history database for the weather conditions in past years. The results will help you decide how hot, cold, wet, or windy it might be!

Date:

Astronomy

Aug. 19, 2013 Rise Set
Actual Time 7:02 AM CDT 8:04 PM CDT
Civil Twilight 6:38 AM CDT 8:28 PM CDT
Nautical Twilight 6:09 AM CDT 8:57 PM CDT
Astronomical Twilight 5:39 AM CDT 9:26 PM CDT
Moon 6:56 PM CDT (8/19) 5:26 AM CDT (8/19)
Length of Visible Light 13h 50m
Length of Day
13h 01m
Waxing Gibbous, 97% of the Moon is Illuminated
Aug 19
Waxing Gibbous
Aug 20
Full
Aug 28
Last Quarter
Sep 5
New
Sep 12
First Quarter

Hourly Weather History & Observations

Time (CDT) Temp. Heat Index Dew Point Humidity Pressure Visibility Wind Dir Wind Speed Gust Speed Precip Events Conditions
12:51 AM 75.0 °F - 64.9 °F 71% 29.97 in 10.0 mi West 4.6 mph - N/A   Clear
1:51 AM 75.0 °F - 64.9 °F 71% 29.97 in 10.0 mi Calm Calm - N/A   Partly Cloudy
2:51 AM 73.0 °F - 64.0 °F 73% 29.97 in 10.0 mi Calm Calm - N/A   Partly Cloudy
3:51 AM 73.0 °F - 64.9 °F 76% 29.96 in 10.0 mi Calm Calm - N/A   Partly Cloudy
4:51 AM 72.0 °F - 66.9 °F 84% 29.96 in 10.0 mi Calm Calm - N/A   Partly Cloudy
5:51 AM 72.0 °F - 66.9 °F 84% 29.96 in 10.0 mi Calm Calm - N/A   Partly Cloudy
6:51 AM 73.9 °F - 69.1 °F 85% 29.97 in 10.0 mi North 5.8 mph - N/A   Partly Cloudy
7:51 AM 77.0 °F - 70.0 °F 79% 29.99 in 9.0 mi North 4.6 mph - N/A   Partly Cloudy
8:51 AM 84.0 °F 91.2 °F 73.9 °F 72% 30.00 in 10.0 mi NNE 6.9 mph - N/A   Partly Cloudy
9:51 AM 87.1 °F 92.0 °F 70.0 °F 57% 30.01 in 10.0 mi East 13.8 mph 17.3 mph N/A   Scattered Clouds
10:51 AM 90.0 °F 94.5 °F 69.1 °F 50% 30.02 in 10.0 mi East 11.5 mph - N/A   Scattered Clouds
11:51 AM 91.9 °F 96.9 °F 69.1 °F 47% 30.02 in 10.0 mi East 12.7 mph - N/A   Scattered Clouds
12:51 PM 93.9 °F 96.1 °F 64.9 °F 38% 30.00 in 10.0 mi East 12.7 mph 18.4 mph N/A   Scattered Clouds
1:51 PM 93.9 °F 99.1 °F 69.1 °F 44% 29.99 in 10.0 mi East 11.5 mph 20.7 mph N/A   Scattered Clouds
2:51 PM 95.0 °F 99.0 °F 66.9 °F 40% 29.96 in 10.0 mi East 13.8 mph 23.0 mph N/A   Scattered Clouds
3:51 PM 95.0 °F 99.0 °F 66.9 °F 40% 29.94 in 10.0 mi East 13.8 mph - N/A   Partly Cloudy
4:51 PM 93.9 °F 98.6 °F 68.0 °F 43% 29.92 in 10.0 mi East 13.8 mph - N/A   Partly Cloudy
5:51 PM 91.9 °F 95.4 °F 66.9 °F 44% 29.91 in 10.0 mi East 15.0 mph - N/A   Partly Cloudy
6:51 PM 89.1 °F 94.1 °F 70.0 °F 53% 29.91 in 10.0 mi East 18.4 mph - N/A   Partly Cloudy
7:51 PM 87.1 °F 92.8 °F 71.1 °F 59% 29.92 in 10.0 mi ESE 15.0 mph - N/A   Partly Cloudy
8:51 PM 84.9 °F 90.7 °F 72.0 °F 65% 29.92 in 10.0 mi ESE 11.5 mph - N/A   Partly Cloudy
9:51 PM 84.0 °F 89.6 °F 72.0 °F 67% 29.94 in 10.0 mi ESE 11.5 mph - N/A   Partly Cloudy
10:51 PM 84.0 °F 90.2 °F 73.0 °F 69% 29.95 in 10.0 mi ESE 10.4 mph - N/A   Partly Cloudy
11:51 PM 82.9 °F 88.0 °F 72.0 °F 69% 29.94 in 10.0 mi ESE 10.4 mph - N/A   Partly Cloudy